Time,TemperatureF,DewpointF,PressureIn,WindDirection,WindDirectionDegrees,WindSpeedMPH,WindSpeedGustMPH,Humidity,HourlyPrecipIn,Conditions,Clouds,dailyrainin,SoftwareType,DateUTC
2013-04-19 00:01:00,49.0,49.0,30.41,North,0,0.0,0.0,100,0.00,,,0.00,,2013-04-19 07:01:00,
2013-04-19 00:11:00,49.0,49.0,30.41,North,0,0.0,0.0,100,0.00,,,0.00,,2013-04-19 07:11:00,
2013-04-19 00:21:00,49.0,49.0,30.41,North,0,0.0,0.0,100,0.00,,,0.00,,2013-04-19 07:21:00,
2013-04-19 00:31:00,49.0,49.0,30.41,North,0,0.0,0.0,100,0.00,,,0.00,,2013-04-19 07:31:00,
2013-04-19 00:41:00,49.0,49.0,30.41,North,0,0.0,0.0,100,0.00,,,0.00,,2013-04-19 07:41:00,
2013-04-19 00:52:00,49.0,49.0,30.41,North,0,0.0,0.0,100,0.00,,,0.00,,2013-04-19 07:52:00,
2013-04-19 01:02:00,49.0,49.0,30.41,North,0,0.0,0.0,100,0.00,,,0.00,,2013-04-19 08:02:00,
2013-04-19 01:12:00,49.0,49.0,30.40,North,0,0.0,0.0,100,0.00,,,0.00,,2013-04-19 08:12:00,
2013-04-19 01:21:00,49.0,49.0,30.40,North,0,0.0,0.0,100,0.00,,,0.00,,2013-04-19 08:21:00,
2013-04-19 01:32:00,49.0,49.0,30.40,North,0,0.0,0.0,100,0.00,,,0.00,,2013-04-19 08:32:00,
2013-04-19 01:41:00,49.0,49.0,30.40,North,0,0.0,0.0,100,0.00,,,0.00,,2013-04-19 08:41:00,
2013-04-19 01:52:00,49.0,49.0,30.40,North,0,0.0,0.0,100,0.00,,,0.00,,2013-04-19 08:52:00,
2013-04-19 02:01:00,48.0,48.0,30.40,North,0,0.0,0.0,100,0.00,,,0.00,,2013-04-19 09:01:00,
2013-04-19 02:11:00,48.0,48.0,30.39,North,0,0.0,0.0,100,0.00,,,0.00,,2013-04-19 09:11:00,
2013-04-19 02:21:00,48.0,48.0,30.39,North,0,0.0,0.0,100,0.00,,,0.00,,2013-04-19 09:21:00,
2013-04-19 02:32:00,48.0,48.0,30.39,North,0,0.0,0.0,100,0.00,,,0.00,,2013-04-19 09:32:00,
2013-04-19 02:42:00,48.0,48.0,30.39,North,0,0.0,0.0,100,0.00,,,0.00,,2013-04-19 09:42:00,
2013-04-19 02:52:00,48.0,48.0,30.38,North,0,0.0,0.0,100,0.00,,,0.00,,2013-04-19 09:52:00,
2013-04-19 03:02:00,48.0,48.0,30.37,North,0,0.0,0.0,100,0.00,,,0.00,,2013-04-19 10:02:00,
2013-04-19 03:13:00,48.0,48.0,30.37,North,0,0.0,0.0,100,0.00,,,0.00,,2013-04-19 10:13:00,
2013-04-19 03:22:00,48.0,48.0,30.37,North,0,0.0,0.0,100,0.00,,,0.00,,2013-04-19 10:22:00,
2013-04-19 03:33:00,48.0,48.0,30.37,North,0,0.0,0.0,100,0.00,,,0.00,,2013-04-19 10:33:00,
2013-04-19 03:42:00,48.0,48.0,30.36,North,0,0.0,3.0,100,0.01,,,0.01,,2013-04-19 10:42:00,
2013-04-19 03:52:00,48.0,48.0,30.36,North,0,0.0,3.0,100,0.01,,,0.01,,2013-04-19 10:52:00,
2013-04-19 04:02:00,48.0,48.0,30.35,North,0,0.0,0.0,100,0.01,,,0.01,,2013-04-19 11:02:00,
2013-04-19 04:11:00,48.0,48.0,30.36,North,0,0.0,0.0,100,0.01,,,0.01,,2013-04-19 11:11:00,
2013-04-19 04:21:00,48.0,48.0,30.36,North,0,0.0,0.0,100,0.01,,,0.01,,2013-04-19 11:21:00,
2013-04-19 04:32:00,48.0,48.0,30.34,North,0,0.0,0.0,100,0.01,,,0.01,,2013-04-19 11:32:00,
2013-04-19 04:42:00,48.0,48.0,30.34,North,0,0.0,0.0,100,0.01,,,0.01,,2013-04-19 11:42:00,
2013-04-19 04:52:00,48.0,48.0,30.34,North,0,0.0,0.0,100,0.01,,,0.02,,2013-04-19 11:52:00,
2013-04-19 05:02:00,48.0,48.0,30.33,North,0,0.0,0.0,100,0.01,,,0.03,,2013-04-19 12:02:00,
2013-04-19 05:12:00,48.0,48.0,30.32,North,0,0.0,0.0,100,0.04,,,0.05,,2013-04-19 12:12:00,
2013-04-19 05:22:00,48.0,48.0,30.32,North,0,0.0,0.0,100,0.04,,,0.05,,2013-04-19 12:22:00,
2013-04-19 05:32:00,48.0,48.0,30.31,North,0,0.0,0.0,100,0.04,,,0.05,,2013-04-19 12:32:00,
2013-04-19 05:42:00,48.0,48.0,30.31,North,0,0.0,0.0,100,0.04,,,0.05,,2013-04-19 12:42:00,
2013-04-19 05:52:00,48.0,48.0,30.31,North,0,0.0,0.0,100,0.05,,,0.08,,2013-04-19 12:52:00,
2013-04-19 06:01:00,48.0,48.0,30.30,North,0,0.0,0.0,100,0.07,,,0.11,,2013-04-19 13:01:00,
2013-04-19 06:11:00,48.0,48.0,30.30,North,0,0.0,1.0,100,0.09,,,0.16,,2013-04-19 13:11:00,
2013-04-19 06:21:00,48.0,48.0,30.30,North,0,0.0,1.0,100,0.09,,,0.16,,2013-04-19 13:21:00,
2013-04-19 06:32:00,48.0,48.0,30.30,North,0,0.0,0.0,100,0.14,,,0.20,,2013-04-19 13:32:00,
2013-04-19 06:41:00,48.0,48.0,30.30,North,0,0.0,3.0,100,0.14,,,0.21,,2013-04-19 13:41:00,
2013-04-19 06:52:00,48.0,48.0,30.30,North,0,0.0,3.0,100,0.14,,,0.21,,2013-04-19 13:52:00,
2013-04-19 07:01:00,48.0,48.0,30.30,North,0,0.0,0.0,100,0.16,,,0.25,,2013-04-19 14:01:00,
2013-04-19 07:11:00,48.0,48.0,30.30,North,0,0.0,9.0,100,0.18,,,0.33,,2013-04-19 14:11:00,
2013-04-19 07:21:00,48.0,48.0,30.30,North,0,0.0,9.0,100,0.18,,,0.33,,2013-04-19 14:21:00,
2013-04-19 07:31:00,48.0,48.0,30.31,North,0,0.0,0.0,100,0.18,,,0.35,,2013-04-19 14:31:00,
2013-04-19 07:42:00,48.0,48.0,30.31,North,0,0.0,0.0,100,0.18,,,0.35,,2013-04-19 14:42:00,
2013-04-19 07:52:00,48.0,48.0,30.31,North,357,0.0,16.0,100,0.17,,,0.39,,2013-04-19 14:52:00,
2013-04-19 08:01:00,48.0,48.0,30.30,North,0,0.0,0.0,100,0.16,,,0.43,,2013-04-19 15:01:00,
2013-04-19 08:11:00,49.0,49.0,30.31,North,0,0.0,17.0,100,0.13,,,0.46,,2013-04-19 15:11:00,
2013-04-19 08:21:00,49.0,49.0,30.31,North,0,0.0,17.0,100,0.13,,,0.46,,2013-04-19 15:21:00,
2013-04-19 08:33:00,49.0,49.0,30.31,North,0,0.0,2.0,100,0.12,,,0.49,,2013-04-19 15:33:00,
2013-04-19 08:42:00,49.0,49.0,30.31,North,0,0.0,2.0,100,0.12,,,0.49,,2013-04-19 15:42:00,
2013-04-19 08:52:00,49.0,49.0,30.31,North,0,0.0,2.0,100,0.13,,,0.52,,2013-04-19 15:52:00,
2013-04-19 09:02:00,49.0,49.0,30.31,North,0,0.0,0.0,100,0.12,,,0.54,,2013-04-19 16:02:00,
2013-04-19 09:12:00,49.0,49.0,30.31,North,0,0.0,0.0,100,0.11,,,0.57,,2013-04-19 16:12:00,
2013-04-19 09:22:00,49.0,49.0,30.31,North,0,0.0,0.0,100,0.11,,,0.57,,2013-04-19 16:22:00,
2013-04-19 09:32:00,50.0,50.0,30.30,SW,224,0.0,7.0,100,0.12,,,0.59,,2013-04-19 16:32:00,
2013-04-19 09:42:00,50.0,50.0,30.30,North,0,0.0,0.0,100,0.09,,,0.60,,2013-04-19 16:42:00,
2013-04-19 09:52:00,50.0,50.0,30.30,North,0,0.0,0.0,100,0.09,,,0.60,,2013-04-19 16:52:00,
2013-04-19 10:02:00,50.0,50.0,30.30,North,0,0.0,0.0,100,0.07,,,0.61,,2013-04-19 17:02:00,
2013-04-19 10:11:00,50.0,50.0,30.30,North,0,0.0,0.0,100,0.07,,,0.61,,2013-04-19 17:11:00,
2013-04-19 10:21:00,50.0,50.0,30.31,North,0,0.0,0.0,100,0.06,,,0.62,,2013-04-19 17:21:00,
2013-04-19 10:32:00,50.0,50.0,30.31,North,0,0.0,0.0,100,0.04,,,0.63,,2013-04-19 17:32:00,
2013-04-19 10:42:00,50.0,50.0,30.31,North,0,0.0,0.0,100,0.04,,,0.63,,2013-04-19 17:42:00,
2013-04-19 10:52:00,49.0,49.0,30.31,North,0,0.0,0.0,100,0.03,,,0.63,,2013-04-19 17:52:00,
2013-04-19 11:01:00,49.0,49.0,30.32,North,0,0.0,0.0,100,0.03,,,0.63,,2013-04-19 18:01:00,
2013-04-19 11:13:00,49.0,49.0,30.32,North,0,0.0,0.0,100,0.03,,,0.63,,2013-04-19 18:13:00,
2013-04-19 11:22:00,49.0,49.0,30.32,North,0,0.0,0.0,100,0.01,,,0.63,,2013-04-19 18:22:00,
2013-04-19 11:32:00,49.0,49.0,30.33,North,0,0.0,0.0,100,0.02,,,0.64,,2013-04-19 18:32:00,
2013-04-19 11:42:00,49.0,49.0,30.33,North,0,0.0,0.0,100,0.02,,,0.64,,2013-04-19 18:42:00,
2013-04-19 11:52:00,50.0,50.0,30.33,North,0,0.0,0.0,100,0.01,,,0.64,,2013-04-19 18:52:00,
2013-04-19 12:01:00,50.0,50.0,30.34,North,0,0.0,0.0,100,0.01,,,0.64,,2013-04-19 19:01:00,
2013-04-19 12:11:00,49.0,49.0,30.35,North,0,0.0,0.0,100,0.01,,,0.64,,2013-04-19 19:11:00,
2013-04-19 12:21:00,49.0,49.0,30.35,North,0,0.0,0.0,100,0.01,,,0.64,,2013-04-19 19:21:00,
2013-04-19 12:31:00,49.0,49.0,30.35,North,0,0.0,0.0,100,0.00,,,0.64,,2013-04-19 19:31:00,
2013-04-19 12:41:00,49.0,49.0,30.35,North,0,0.0,0.0,100,0.00,,,0.64,,2013-04-19 19:41:00,
2013-04-19 12:52:00,49.0,49.0,30.35,North,0,0.0,0.0,100,0.00,,,0.64,,2013-04-19 19:52:00,
2013-04-19 13:01:00,49.0,49.0,30.35,North,0,0.0,0.0,100,0.00,,,0.64,,2013-04-19 20:01:00,
2013-04-19 13:11:00,49.0,49.0,30.36,North,0,0.0,0.0,100,0.00,,,0.64,,2013-04-19 20:11:00,
2013-04-19 13:22:00,49.0,49.0,30.36,North,0,0.0,0.0,100,0.00,,,0.64,,2013-04-19 20:22:00,
2013-04-19 13:31:00,49.0,49.0,30.36,North,0,0.0,6.0,100,0.00,,,0.64,,2013-04-19 20:31:00,
2013-04-19 13:41:00,49.0,49.0,30.36,North,0,0.0,0.0,100,0.00,,,0.64,,2013-04-19 20:41:00,
2013-04-19 13:52:00,49.0,49.0,30.36,North,0,0.0,0.0,100,0.00,,,0.64,,2013-04-19 20:52:00,
2013-04-19 14:01:00,49.0,49.0,30.36,North,0,0.0,0.0,100,0.00,,,0.64,,2013-04-19 21:01:00,
2013-04-19 14:11:00,49.0,49.0,30.36,North,0,0.0,0.0,100,0.00,,,0.64,,2013-04-19 21:11:00,
2013-04-19 14:21:00,49.0,49.0,30.36,North,0,0.0,0.0,100,0.00,,,0.64,,2013-04-19 21:21:00,
2013-04-19 14:32:00,49.0,49.0,30.37,North,0,0.0,0.0,100,0.00,,,0.64,,2013-04-19 21:32:00,
2013-04-19 14:42:00,49.0,49.0,30.37,North,0,0.0,0.0,100,0.00,,,0.64,,2013-04-19 21:42:00,
2013-04-19 14:52:00,48.0,48.0,30.37,North,0,0.0,0.0,100,0.00,,,0.64,,2013-04-19 21:52:00,
2013-04-19 15:02:00,48.0,48.0,30.37,North,0,0.0,2.0,100,0.00,,,0.64,,2013-04-19 22:02:00,
2013-04-19 15:12:00,49.0,49.0,30.37,North,0,0.0,0.0,100,0.00,,,0.64,,2013-04-19 22:12:00,
2013-04-19 15:22:00,49.0,49.0,30.37,North,0,0.0,0.0,100,0.00,,,0.64,,2013-04-19 22:22:00,
2013-04-19 15:33:00,49.0,49.0,30.37,North,0,0.0,0.0,100,0.00,,,0.64,,2013-04-19 22:33:00,
2013-04-19 15:41:00,49.0,49.0,30.37,North,0,0.0,0.0,100,0.00,,,0.64,,2013-04-19 22:41:00,
2013-04-19 15:52:00,49.0,49.0,30.37,North,0,0.0,0.0,100,0.00,,,0.64,,2013-04-19 22:52:00,
2013-04-19 16:02:00,49.0,49.0,30.38,North,0,0.0,0.0,100,0.00,,,0.64,,2013-04-19 23:02:00,
2013-04-19 16:11:00,48.0,48.0,30.37,North,0,0.0,0.0,100,0.00,,,0.64,,2013-04-19 23:11:00,
2013-04-19 16:21:00,48.0,48.0,30.37,North,0,0.0,0.0,100,0.00,,,0.64,,2013-04-19 23:21:00,
2013-04-19 16:31:00,48.0,48.0,30.38,North,0,0.0,0.0,100,0.01,,,0.65,,2013-04-19 23:31:00,
2013-04-19 16:42:00,48.0,48.0,30.38,North,0,0.0,0.0,100,0.01,,,0.65,,2013-04-19 23:42:00,
2013-04-19 16:52:00,48.0,48.0,30.38,North,0,0.0,0.0,100,0.01,,,0.65,,2013-04-19 23:52:00,
2013-04-19 17:01:00,49.0,49.0,30.38,North,0,0.0,0.0,100,0.01,,,0.65,,2013-04-20 00:01:00,
2013-04-19 17:11:00,48.0,48.0,30.38,North,0,0.0,0.0,100,0.01,,,0.65,,2013-04-20 00:11:00,
2013-04-19 17:21:00,48.0,48.0,30.38,North,0,0.0,0.0,100,0.01,,,0.65,,2013-04-20 00:21:00,
2013-04-19 17:31:00,48.0,48.0,30.38,North,0,0.0,0.0,100,0.00,,,0.65,,2013-04-20 00:31:00,
2013-04-19 17:41:00,48.0,48.0,30.38,North,0,0.0,0.0,100,0.00,,,0.65,,2013-04-20 00:41:00,
2013-04-19 17:51:00,49.0,49.0,30.38,North,0,0.0,0.0,100,0.00,,,0.65,,2013-04-20 00:51:00,
2013-04-19 18:01:00,48.0,48.0,30.38,North,0,0.0,7.0,100,0.00,,,0.65,,2013-04-20 01:01:00,
2013-04-19 18:11:00,48.0,48.0,30.38,North,0,0.0,7.0,100,0.00,,,0.65,,2013-04-20 01:11:00,
2013-04-19 18:21:00,48.0,48.0,30.38,North,0,0.0,0.0,100,0.00,,,0.65,,2013-04-20 01:21:00,
2013-04-19 18:31:00,48.0,48.0,30.38,North,0,0.0,0.0,100,0.00,,,0.65,,2013-04-20 01:31:00,
2013-04-19 18:41:00,48.0,48.0,30.38,North,0,0.0,0.0,100,0.00,,,0.65,,2013-04-20 01:41:00,
2013-04-19 18:52:00,48.0,48.0,30.38,North,0,0.0,0.0,100,0.00,,,0.65,,2013-04-20 01:52:00,
2013-04-19 19:01:00,48.0,48.0,30.38,North,0,0.0,0.0,100,0.00,,,0.65,,2013-04-20 02:01:00,
2013-04-19 19:11:00,48.0,48.0,30.37,North,0,0.0,0.0,100,0.00,,,0.65,,2013-04-20 02:11:00,
2013-04-19 19:21:00,48.0,48.0,30.37,North,0,0.0,0.0,100,0.00,,,0.65,,2013-04-20 02:21:00,
2013-04-19 19:31:00,48.0,48.0,30.37,North,0,0.0,0.0,100,0.00,,,0.65,,2013-04-20 02:31:00,
2013-04-19 19:42:00,48.0,48.0,30.37,North,0,0.0,0.0,100,0.00,,,0.65,,2013-04-20 02:42:00,
2013-04-19 19:52:00,48.0,48.0,30.38,North,0,0.0,0.0,100,0.00,,,0.65,,2013-04-20 02:52:00,
2013-04-19 20:01:00,48.0,48.0,30.37,North,0,0.0,0.0,100,0.00,,,0.66,,2013-04-20 03:01:00,
2013-04-19 20:11:00,48.0,48.0,30.37,North,0,0.0,0.0,100,0.01,,,0.66,,2013-04-20 03:11:00,
2013-04-19 20:21:00,48.0,48.0,30.37,North,0,0.0,0.0,100,0.01,,,0.66,,2013-04-20 03:21:00,
2013-04-19 20:32:00,48.0,48.0,30.37,North,0,0.0,0.0,100,0.01,,,0.66,,2013-04-20 03:32:00,
2013-04-19 20:43:00,48.0,48.0,30.38,North,0,0.0,0.0,100,0.01,,,0.66,,2013-04-20 03:43:00,
2013-04-19 20:52:00,48.0,48.0,30.38,North,0,0.0,0.0,100,0.01,,,0.66,,2013-04-20 03:52:00,
2013-04-19 21:02:00,48.0,48.0,30.38,North,0,0.0,0.0,100,0.01,,,0.66,,2013-04-20 04:02:00,
2013-04-19 21:12:00,48.0,48.0,30.38,North,0,0.0,0.0,100,0.01,,,0.67,,2013-04-20 04:12:00,
2013-04-19 21:22:00,48.0,48.0,30.38,North,0,0.0,0.0,100,0.01,,,0.67,,2013-04-20 04:22:00,
2013-04-19 21:32:00,48.0,48.0,30.38,North,0,0.0,0.0,100,0.01,,,0.67,,2013-04-20 04:32:00,
2013-04-19 21:42:00,48.0,48.0,30.38,North,0,0.0,0.0,100,0.01,,,0.67,,2013-04-20 04:42:00,
2013-04-19 21:52:00,48.0,48.0,30.38,North,0,0.0,0.0,100,0.01,,,0.67,,2013-04-20 04:52:00,
2013-04-19 22:01:00,48.0,48.0,30.39,North,0,0.0,0.0,100,0.01,,,0.67,,2013-04-20 05:01:00,
2013-04-19 22:12:00,48.0,48.0,30.39,North,0,0.0,0.0,100,0.01,,,0.67,,2013-04-20 05:12:00,
2013-04-19 22:21:00,48.0,48.0,30.39,North,0,0.0,0.0,100,0.00,,,0.67,,2013-04-20 05:21:00,
2013-04-19 22:32:00,48.0,48.0,30.39,North,0,0.0,0.0,100,0.00,,,0.67,,2013-04-20 05:32:00,
2013-04-19 22:42:00,48.0,48.0,30.39,North,0,0.0,0.0,100,0.00,,,0.67,,2013-04-20 05:42:00,
2013-04-19 22:52:00,48.0,48.0,30.39,North,0,0.0,0.0,100,0.00,,,0.67,,2013-04-20 05:52:00,
2013-04-19 23:01:00,48.0,48.0,30.39,North,0,0.0,0.0,100,0.00,,,0.67,,2013-04-20 06:01:00,
2013-04-19 23:12:00,48.0,48.0,30.39,North,0,0.0,0.0,100,0.00,,,0.67,,2013-04-20 06:12:00,
2013-04-19 23:21:00,48.0,48.0,30.38,North,0,0.0,0.0,100,0.00,,,0.67,,2013-04-20 06:21:00,
2013-04-19 23:31:00,48.0,48.0,30.37,North,0,0.0,0.0,100,0.01,,,0.68,,2013-04-20 06:31:00,
2013-04-19 23:42:00,48.0,48.0,30.37,North,0,0.0,0.0,100,0.01,,,0.68,,2013-04-20 06:42:00,
2013-04-19 23:52:00,48.0,48.0,30.38,North,0,0.0,0.0,100,0.01,,,0.68,,2013-04-20 06:52:00,